[[{"header":{"parameterUnit":"m.s-1","parameterCategory":1,"la1":30.2991,"la2":30.254,"lo1":-89.0895,"lo2":-89.0444,"dy":0.0017,"dx":0.0017,"nx":28,"ny":28,"refTime":"2024-07-15T09:00:00:Z","depth":0,"parameterNumber":2,"parameterNumberName":"U-component_of_WINDS"},"data":[0,0,0,0,0,0,0,0,0,0,0,0,0,0,0,0,0,0,0,0,0,0,0,0,0,0,0,0,0,0,0,0,0,0,0,0,0,0,0,0,0,0,0,0,0,0,0,0,0,0,0,0,0,0,0,0,0,0,0.43,0.4299,0,0.4218,0.4217,0.4216,0.412,0.4118,0.4117,0.4115,0.4032,0.4032,0.4031,0,0,0,0,0,0,0,0,0,0,0,0,0,0.4375,0.4374,0.43,0.4299,0.4298,0.4218,0.4217,0.4216,0.412,0.4118,0.4116,0.4115,0.4033,0.4032,0.4031,0,0,0,0,0,0,0,0,0,0,0,0,0,0.4323,0.4374,0.4301,0.4241,0.4234,0.4219,0.4217,0.4216,0.412,0.4118,0.4116,0.4114,0.4033,0.4032,0.4031,0.4067,0,0,0.4027,0.4026,0,0,0,0,0,0,0,0,0.4326,0.432,0.425,0.4245,0.4238,0.4177,0.4213,0.4166,0.4121,0.4164,0.4115,0.4113,0.4082,0.4077,0.4066,0.4063,0.406,0.4027,0.4026,0.4025,0.4025,0,0,0,0,0,0,0,0.4329,0.4323,0.4268,0.425,0.4242,0.4218,0.4208,0.4204,0.4137,0.416,0.4153,0.4144,0.4078,0.4068,0.4064,0.4058,0.4027,0.4026,0.4025,0.4024,0.4083,0.4085,0,0,0,0,0,0,0.4342,0.4327,0.427,0.4265,0.4277,0.4219,0.4208,0.4199,0.4136,0.4125,0.4146,0.414,0.4071,0.4065,0.406,0.4101,0.4025,0.4024,0.4023,0.408,0.4083,0.4085,0,0,0,0,0,0,0.4344,0.4338,0.4274,0.4294,0.4284,0.422,0.4211,0.4198,0.4188,0.4126,0.4114,0.4148,0.4069,0.4062,0.4066,0.4096,0.4024,0.4022,0.4078,0.4081,0.4084,0.4181,0,0,0,0,0,0,0.4346,0.4339,0.4352,0.4295,0.4283,0.4281,0.4212,0.4198,0.4186,0.4177,0.4124,0.4113,0.4067,0.4069,0.4065,0.4093,0.4021,0.4075,0.4079,0.4083,0.4175,0.4187,0.4198,0,0,0,0,0,0.4349,0.4383,0.4353,0.4347,0.4298,0.4283,0.4276,0.4222,0.4188,0.4201,0.4162,0.4115,0.4093,0.407,0.4065,0.4093,0.4073,0.4078,0.4083,0.417,0.4185,0.4197,0,0,0,0,0,0,0.4445,0.4374,0.4341,0.4356,0.4327,0.4267,0.4282,0.424,0.4219,0.4212,0.4145,0.4134,0.4147,0.412,0.4095,0.4126,0.4076,0.4081,0.4144,0.4157,0.4169,0.4176,0.402,0,0,0,0,0,0.4468,0.4462,0.4399,0.4419,0.4406,0.4347,0.4338,0.4299,0.4265,0.4252,0.4213,0.4182,0.4168,0.4161,0.4145,0.4169,0.4158,0.4186,0.4198,0.4208,0.4213,0.4226,0.4238,0.4102,0.4102,0.4102,0,0,0.4516,0.4476,0.4476,0.4438,0.441,0.4405,0.4337,0.4334,0.433,0.4252,0.4254,0.4224,0.4185,0.4201,0.4205,0.4179,0.4248,0.4214,0.4223,0.4222,0.4232,0.4245,0.4257,0.4106,0.4105,0.4105,0,0,0.46,0.4569,0.4583,0.4556,0.4515,0.4475,0.4478,0.4425,0.4402,0.4403,0.4344,0.4338,0.4316,0.4291,0.4276,0.4351,0.4308,0.4348,0.4409,0.4422,0.4433,0.4442,0.4471,0.4482,0.4353,0.4353,0.4353,0,0.4665,0.4655,0.4595,0.4597,0.4582,0.451,0.4524,0.4501,0.4457,0.4449,0.4419,0.439,0.4359,0.4368,0.4387,0.4376,0.4379,0.4354,0.4436,0.4444,0.4452,0.4479,0.449,0.4358,0.4357,0.4357,0.4356,0,0.4737,0.4732,0.4747,0.4707,0.4694,0.4701,0.4643,0.4637,0.4599,0.4562,0.4565,0.4525,0.45,0.4498,0.4461,0.4503,0.4488,0.4448,0.4397,0.4471,0.4496,0.4505,0.4366,0.4364,0.4362,0.4361,0,0,0.4882,0.4807,0.4815,0.4796,0.4745,0.4739,0.4744,0.4719,0.4716,0.4688,0.4691,0.4673,0.4636,0.4619,0.4578,0.4589,0.4654,0.4548,0.4546,0.4571,0.47,0.4732,0.4745,0.4624,0.4625,0.4627,0.4704,0,0.4959,0.4963,0.4909,0.4928,0.4922,0.4854,0.4858,0.4827,0.4793,0.4784,0.4746,0.4735,0.4686,0.4676,0.4683,0.4644,0.4679,0.4638,0.4628,0.4628,0.4642,0.4757,0.4791,0.4865,0.4712,0.4714,0.4715,0,0.505,0.5027,0.5046,0.4994,0.499,0.4995,0.4969,0.496,0.4924,0.4898,0.488,0.4832,0.4834,0.4784,0.4786,0.4759,0.4751,0.4732,0.4733,0.4732,0.4678,0.4762,0.4887,0.49,0.4729,0.4728,0.4727,0,0.5156,0.513,0.5138,0.5123,0.5063,0.5069,0.5044,0.5005,0.4995,0.4971,0.4964,0.4941,0.4929,0.4913,0.4862,0.4829,0.4871,0.4815,0.4851,0.4852,0.4865,0.4865,0.4994,0.4856,0.4856,0.4855,0.4855,0,0.525,0.5264,0.5185,0.519,0.5205,0.5142,0.5159,0.5127,0.5094,0.5092,0.503,0.503,0.4961,0.4953,0.4912,0.4922,0.4916,0.4897,0.4886,0.4904,0.4907,0.49,0.4894,0.4858,0.4858,0.4857,0.4857,0,0.5372,0.5319,0.5324,0.5266,0.5252,0.5266,0.5217,0.522,0.5181,0.518,0.5176,0.5117,0.5104,0.5051,0.5025,0.4998,0.5022,0.4999,0.5035,0.5028,0.5067,0.5066,0.5199,0.5214,0.5064,0.5066,0.5067,0,0.5436,0.5446,0.539,0.5384,0.5362,0.5354,0.5342,0.5281,0.5271,0.5232,0.524,0.5222,0.5206,0.519,0.5145,0.5125,0.5103,0.5151,0.51,0.5118,0.5107,0.5108,0.511,0.5163,0.5165,0.5167,0.5168,0,0.5557,0.553,0.5516,0.5493,0.5481,0.5459,0.5435,0.5434,0.5365,0.5358,0.5345,0.5332,0.5306,0.5291,0.5264,0.5239,0.5193,0.5184,0.5192,0.5211,0.5232,0.5224,0.5067,0.5182,0.518,0.5179,0.5179,0.5178,0.5653,0.5659,0.5621,0.5607,0.5582,0.556,0.5561,0.5522,0.551,0.5485,0.5449,0.5441,0.5405,0.5364,0.5343,0.5336,0.531,0.5321,0.5324,0.5328,0.5338,0.5231,0.5331,0.533,0.533,0.533,0.5329,0,0.5773,0.5744,0.5732,0.57,0.5689,0.5645,0.5616,0.561,0.5604,0.5574,0.5559,0.5545,0.5529,0.5483,0.5463,0.5467,0.5445,0.5464,0.5464,0.546,0.5361,0.5358,0.5481,0.5481,0.5481,0.5481,0.5481,0.5481,0.5834,0.5842,0.5811,0.5807,0.5778,0.577,0.5757,0.5737,0.5713,0.57,0.5687,0.5656,0.562,0.5597,0.5581,0.5568,0.5565,0.5591,0.5571,0.5481,0.5466,0.5452,0.5449,0.559,0.559,0.567,0.5671,0.5672]},{"header":{"parameterUnit":"m.s-1","parameterCategory":1,"la1":30.2991,"la2":30.254,"lo1":-89.0895,"lo2":-89.0444,"dy":0.0017,"dx":0.0017,"nx":28,"ny":28,"refTime":"2024-07-15T09:00:00:Z","depth":0,"parameterNumber":3,"parameterNumberName":"V-component_of_WINDS"},"data":[0,0,0,0,0,0,0,0,0,0,0,0,0,0,0,0,0,0,0,0,0,0,0,0,0,0,0,0,0,0,0,0,0,0,0,0,0,0,0,0,0,0,0,0,0,0,0,0,0,0,0,0,0,0,0,0,0,0,-0.0033,-0.0032,0,0.0013,0.0013,0.0014,-0.0018,-0.002,-0.0021,-0.0022,0.0025,0.0027,0.003,0,0,0,0,0,0,0,0,0,0,0,0,0,-0.0146,-0.0144,-0.0033,-0.0032,-0.0031,0.0013,0.0013,0.0014,-0.0018,-0.002,-0.0021,-0.0023,0.0024,0.0027,0.003,0,0,0,0,0,0,0,0,0,0,0,0,0,-0.0098,-0.0143,-0.0033,-0.0042,-0.0042,0.0013,0.0013,0.0014,-0.0018,-0.002,-0.0022,-0.0024,0.0023,0.0027,0.003,0.0097,0,0,0.0042,0.0044,0,0,0,0,0,0,0,0,-0.0101,-0.0094,-0.0041,-0.0041,-0.0042,-0.0011,-0.001,0.0042,-0.0017,-0.0027,-0.0022,-0.0025,0.0015,0.0019,0.0032,0.0099,0.0101,0.0043,0.0045,0.0047,0.0048,0,0,0,0,0,0,0,-0.0104,-0.0096,-0.0015,-0.004,-0.0041,-0.0048,-0.0044,0.0,0.0005,-0.0026,-0.0028,-0.0023,0.0014,0.0029,0.0033,0.0102,0.0042,0.0046,0.0048,0.005,0.0227,0.023,0,0,0,0,0,0,-0.0107,-0.0099,-0.0016,-0.0013,-0.0077,-0.0044,-0.004,-0.0018,0.0005,0.0006,-0.0021,-0.0024,0.0023,0.0029,0.0035,0.0116,0.0046,0.005,0.0052,0.0225,0.0228,0.023,0,0,0,0,0,0,-0.0109,-0.0099,-0.0018,-0.0057,-0.0047,-0.004,-0.0016,-0.0016,-0.0002,0.0009,0.001,-0.0007,0.0022,0.0029,0.0082,0.0117,0.0052,0.0055,0.0222,0.0226,0.0229,0.0278,0,0,0,0,0,0,-0.0112,-0.01,-0.0074,-0.0056,-0.0045,0.0029,-0.0014,-0.0014,0.0005,0.0001,0.0022,0.0023,0.0021,0.0076,0.0086,0.0121,0.0058,0.0219,0.0224,0.0228,0.0273,0.0282,0.0291,0,0,0,0,0,-0.0116,-0.0063,-0.0073,-0.0063,-0.0013,0.0031,0.0037,0.0033,0.0008,0.0034,0.004,0.0023,0.0111,0.0082,0.0093,0.0129,0.0217,0.0222,0.0228,0.0269,0.0281,0.029,0,0,0,0,0,0,-0.0077,-0.006,-0.0072,-0.0011,0.0009,0.0025,0.0058,0.0045,0.0072,0.0067,0.006,0.0065,0.0121,0.013,0.0097,0.0196,0.016,0.0168,0.0188,0.0199,0.0208,0.0205,0.0062,0,0,0,0,0,-0.0061,-0.0028,-0.0015,0.0038,0.0048,0.0051,0.007,0.0065,0.0085,0.0093,0.0104,0.0124,0.0156,0.0178,0.0208,0.0273,0.0278,0.0304,0.0313,0.032,0.0327,0.0364,0.0376,0.0248,0.0248,0.0248,0,0,-0.0029,-0.0015,0.0007,0.0046,0.006,0.0096,0.0059,0.0098,0.0124,0.0099,0.015,0.0158,0.018,0.024,0.0267,0.025,0.0363,0.0327,0.0332,0.0336,0.0371,0.0383,0.0393,0.0252,0.0251,0.0251,0,0,0.005,0.0063,0.0109,0.0124,0.0146,0.0148,0.0159,0.0178,0.0182,0.0233,0.0215,0.0247,0.0302,0.0319,0.0335,0.042,0.0405,0.043,0.0476,0.0512,0.0522,0.0531,0.0563,0.0575,0.0437,0.0437,0.0437,0,0.0088,0.0141,0.0134,0.0175,0.0193,0.0171,0.0219,0.0233,0.0265,0.0278,0.0258,0.0328,0.0341,0.0405,0.0426,0.0439,0.0452,0.0428,0.0521,0.053,0.0538,0.0569,0.0581,0.044,0.0439,0.0439,0.0439,0,0.0188,0.0225,0.0259,0.0291,0.0312,0.0356,0.0356,0.0379,0.0371,0.0375,0.0428,0.0443,0.0476,0.0491,0.0484,0.0554,0.0543,0.0522,0.0487,0.0554,0.0582,0.0594,0.0444,0.0443,0.0442,0.0441,0,0,0.0294,0.032,0.0333,0.0347,0.037,0.0399,0.0442,0.0474,0.0495,0.0517,0.0553,0.0601,0.0582,0.06,0.0594,0.0625,0.0694,0.0601,0.0601,0.0619,0.0774,0.0792,0.0805,0.0683,0.0685,0.0687,0.0773,0,0.0375,0.045,0.0445,0.0516,0.0551,0.053,0.0567,0.0586,0.059,0.0621,0.0625,0.066,0.0631,0.0642,0.0672,0.0679,0.0725,0.0673,0.0719,0.072,0.0716,0.082,0.0838,0.0918,0.0784,0.0786,0.0787,0,0.0481,0.0507,0.0581,0.0599,0.0614,0.0648,0.0678,0.0706,0.0727,0.0728,0.0748,0.0738,0.0781,0.0743,0.0804,0.0768,0.0786,0.0793,0.0796,0.0802,0.0759,0.083,0.0944,0.0957,0.0804,0.0803,0.0802,0,0.0553,0.0606,0.0658,0.067,0.0693,0.0717,0.0728,0.0746,0.0766,0.0792,0.0805,0.0836,0.0853,0.0877,0.0875,0.0847,0.0937,0.0899,0.0941,0.0941,0.0963,0.0962,0.1083,0.0971,0.0971,0.097,0.097,0,0.0646,0.0692,0.0691,0.0723,0.0775,0.0768,0.082,0.0827,0.0844,0.0877,0.0861,0.0892,0.0887,0.0919,0.0917,0.0969,0.0976,0.0979,0.0979,0.0982,0.0982,0.0996,0.0991,0.0974,0.0973,0.0972,0.0972,0,0.0736,0.0737,0.0792,0.0808,0.0814,0.0851,0.0866,0.0896,0.0899,0.0942,0.0951,0.0956,0.0993,0.0993,0.1035,0.1034,0.1098,0.109,0.1091,0.109,0.1133,0.113,0.1269,0.1288,0.1162,0.1163,0.1164,0,0.0796,0.0832,0.0852,0.0873,0.0886,0.092,0.094,0.0935,0.0957,0.0983,0.1011,0.1046,0.1074,0.1134,0.1142,0.1174,0.1168,0.1214,0.1172,0.1175,0.1171,0.117,0.1174,0.1223,0.1224,0.1225,0.1226,0,0.0904,0.0902,0.0933,0.0963,0.0989,0.1012,0.1034,0.1053,0.1049,0.1075,0.1113,0.1135,0.1178,0.1213,0.1244,0.1255,0.1241,0.1239,0.1251,0.1256,0.1256,0.1259,0.1116,0.1236,0.1235,0.1235,0.1234,0.1234,0.0982,0.1013,0.1033,0.1067,0.1083,0.1104,0.1134,0.1141,0.1172,0.1207,0.1201,0.1244,0.1263,0.1304,0.1317,0.135,0.1334,0.1351,0.1356,0.136,0.1366,0.1249,0.1356,0.1355,0.1355,0.1355,0.1355,0,0.1091,0.1102,0.1134,0.1165,0.1193,0.1176,0.1199,0.1224,0.1261,0.1281,0.1309,0.1352,0.1387,0.1397,0.143,0.1455,0.1449,0.1464,0.1463,0.1467,0.1378,0.1365,0.1468,0.1468,0.1468,0.1468,0.1468,0.1468,0.115,0.1203,0.1204,0.1264,0.1275,0.1317,0.1332,0.1351,0.1367,0.1416,0.1445,0.1451,0.1467,0.1502,0.1533,0.1535,0.1549,0.1567,0.1566,0.1484,0.1473,0.1462,0.145,0.1569,0.1569,0.1653,0.1653,0.1654]}]]